Regional Weather Roundup
Issued by NWS Boston, MA

Current Version | Previous Version | Text Only | Print | Product List | Glossary Off
Versions: 1 2 3 4 5 6 7 8 9 10 11 12 13 14 15 16 17 18 19 20 21 22 23 24 25 26 27 28 29 30 31 32 33 34 35 36 37 38 39 40 41 42 43 44 45 46 47 48 49 50
000 ASUS41 KBOX 191810 RWRBOX REGIONAL WEATHER ROUNDUP NATIONAL WEATHER SERVICE TAUNTON MA 100 PM EST SUN NOV 19 2017 NOTE: "FAIR" INDICATES FEW OR NO CLOUDS BELOW 12,000 FEET WITH NO SIGNIFICANT WEATHER AND/OR OBSTRUCTIONS TO VISIBILITY. MAZALL-191900- EASTERN MASSACHUSETTS CITY SKY/WX TMP DP RH WIND PRES REMARKS BOSTON MOSUNNY 49 36 61 W21G39 29.21R 6HR MIN TEMP: 48; 6HR MAX TEMP: 60; 6HR PCP: 0.09; BEVERLY PTSUNNY 50 39 66 W16G36 29.17R LAWRENCE MOSUNNY 51 35 54 W24G44 29.20R BEDFORD SUNNY 48 33 56 W22G33 29.22R BLUE HILL NOT AVBL NORWOOD MOSUNNY 52 37 56 W20G28 29.24R MARSHFIELD MOSUNNY 52 43 71 W17G33 29.20R PLYMOUTH PTSUNNY 52 42 69 W20G32 29.22R TAUNTON PTSUNNY 51 38 60 W20G30 29.24R NEW BEDFORD CLOUDY 51 41 68 W21G31 29.24R $$ MAZALL-191900- CAPE COD AND THE ISLANDS CITY SKY/WX TMP DP RH WIND PRES REMARKS FALMOUTH PTSUNNY 55 48 76 W29G39 29.22R HYANNIS MOSUNNY 58 49 72 SW23G35 29.18S CHATHAM PTSUNNY 56 52 86 SW13G31 29.21S PROVINCETOWN LGT RAIN 54 47 77 W24G35 29.19R NANTUCKET MOSUNNY 56 47 71 W29G45 29.25R MARTHAS VNYRD PTSUNNY 54 42 64 W20G37 29.25R $$ MAZALL-191900- CENTRAL AND WESTERN MASSACHUSETTS CITY SKY/WX TMP DP RH WIND PRES REMARKS WORCESTER MOSUNNY 42 28 57 W33G46 29.25R WCI 31 6HR MIN TEMP: 42; 6HR MAX TEMP: 55; 6HR PCP: 0.16; FITCHBURG MOSUNNY 49 33 54 W28G40 29.26R ORANGE PTSUNNY 44 30 57 W14G28 29.32R SPRINGFIELD PTSUNNY 46 28 50 NW25G36 29.36R WESTFIELD CLOUDY 44 30 57 NW28G37 29.38R NORTH ADAMS CLOUDY 37 26 64 W18G32 29.40R WCI 27 PITTSFIELD CLOUDY 37 26 64 W30G44 29.38R WCI 24 $$ RIZALL-191900- RHODE ISLAND CITY SKY/WX TMP DP RH WIND PRES REMARKS PROVIDENCE MOSUNNY 52 38 58 W25G37 29.29R 6HR MIN TEMP: 51; 6HR MAX TEMP: 61; 6HR PCP: 0.29; NEWPORT CLOUDY 51 37 58 W17G29 29.28R BLOCK ISLAND CLOUDY 52 41 66 W25G36 29.33R SMITHFIELD PTSUNNY 47 35 63 NW23G36 29.29R WESTERLY CLOUDY 53 38 56 W16G29 29.33R $$ CTZALL-191900- CONNECTICUT CITY SKY/WX TMP DP RH WIND PRES REMARKS BRADLEY INTL PTSUNNY 46 29 51 W15G35 29.40R 6HR MIN TEMP: 46; 6HR MAX TEMP: 57; 6HR PCP: 0.16; HARTFORD PTSUNNY 49 30 48 W29G38 29.39R BRIDGEPORT PTSUNNY 50 30 46 W25G40 29.42R DANBURY MOSUNNY 46 30 53 W13G26 29.46R GROTON PTSUNNY 52 36 54 NW16G30 29.34R NEW HAVEN PTSUNNY 50 31 48 W15G28 29.42R CHESTER PTSUNNY 52 30 43 W16G31 29.37R MERIDEN MOSUNNY 49 30 48 W20G30 29.40R WILLIMANTIC MOSUNNY 49 31 49 W26G37 29.36R OXFORD PTSUNNY 45 30 55 W16G35 29.41R $$ MEZ002-015-021-024-NHZ003-005-008-011-012-014-VTZ005-008-191900- NORTHERN NEW ENGLAND CITY SKY/WX TMP DP RH WIND PRES REMARKS PORTLAND ME CLOUDY 54 47 77 W21G33 29.05R 6HR MIN TEMP: 53; 6HR MAX TEMP: 56; 6HR PCP: 0.16; BANGOR ME CLOUDY 56 54 93 S16 29.00F CONCORD NH CLOUDY 46 35 65 W26G36 29.19R MANCHESTER NH PTSUNNY 48 34 58 W17G29 29.20R NASHUA NH MOSUNNY 48 34 58 W20G31 29.23R PORTSMOUTH NH PTSUNNY 50 38 65 W20G36 29.12R JAFFREY NH PTSUNNY 43 32 65 VRB7G23 29.26R KEENE NH CLOUDY 42 31 64 NW8G28 29.32R BURLINGTON VT FLURRIES 35 24 64 W16G25 29.37R WCI 25 MT. WASHINGTON SNOWSHWR 18 18 100 W63G70 N/A VSB 0 WCI -8 $$ NYZ052-076-191900- EASTERN NEW YORK CITY SKY/WX TMP DP RH WIND PRES REMARKS ALBANY PTSUNNY 40 25 55 W26G40 29.46R WCI 29 6HR MIN TEMP: 39; 6HR MAX TEMP: 52; 6HR PCP: 0.05; NEW YORK CITY PTSUNNY 51 32 48 NW28G37 29.49R 6HR MIN TEMP: 50; 6HR MAX TEMP: 58; 6HR PCP: 0.02; $$ ANZALL-191900- MARINE OBSERVATIONS STATION/POSITION TIME TEMP WIND PRES VSBY WAVE AIR SEA DIR/SP/G HT/PER (UTC) (F) (DEG/KT/KT) (MB) (MI) (FT/S) BOSTON BUOY 1750 50 51 270/ 31/ 37 986.4R 4/ 3 BUZZARDS BAY 1700 55 240/ 34/ 40 989.1R NANTUCKET SOUND 1750 54 51 250/ 25/ 33 988.9R 4/ 5 MASS BAY-STELLWA 1704 55 50 220/ 14/ 17 984.5F 4/ 5 ISLE OF SHOALS 1700 56 250/ 28/ 31 984.0F S OF BLOCK IS NOT AVBL $$ ......................KEY......................... SKY/WX - SKY CONDITION/PRESENT WEATHER TMP - TEMPERATURE IN FAHRENHEIT DWPT - DEWPOINT IN FAHRENHEIT RH - RELATIVE HUMIDITY IN PERCENT WIND - DIRECTION AND SPEED IN MPH PRES - MEAN SEA LEVEL PRESSURE IN INCHES OF HG WCI - WIND CHILL INDEX VSB - VISIBILITY IN MILES HX - HEAT INDEX TC - TEMPERATURE IN CELSIUS VRB - VARIABLE WIND DIRECTION N/A - NOT AVAILABLE

USA.gov is the U.S. government's official web portal to all federal, state and local government web resources and services.